Galena, AK

3:37 PM AKST on December 16, 2017 (GMT -0900)
Pitka

Weather History for PAGA - February, 2013

Change the Weather History Date:

Wednesday, February 13, 2013

  Actual Average Record
Temperature  
Mean Temperature 12 °F -  
Max Temperature 19 °F 3 °F 36 °F (1980)
Min Temperature 6 °F -13 °F -48 °F (1976)
Degree Days  
Heating Degree Days 52    
Moisture  
Dew Point 11 °F    
Average Humidity 83    
Maximum Humidity 92    
Minimum Humidity 74    
Precipitation  
Precipitation 0.00 in - - ()
Sea Level Pressure  
Sea Level Pressure 29.72 in    
Wind  
Wind Speed 7 mph (East)    
Max Wind Speed 22 mph    
Max Gust Speed -    
Visibility 9 miles    
Events Snow    
Averages and records for this station are not official NWS values.
T = Trace of Precipitation, MM = Missing Value Source: NWS Daily Summary

Daily Weather History Graph

Daily Weather History Graph

Search for Another Location

Airport or City:

Trip Planner

Search our weather history database for the weather conditions in past years. The results will help you decide how hot, cold, wet, or windy it might be!

Date:

Astronomy

Feb. 13, 2013 Rise Set
Actual Time 9:31 AM AKST 5:53 PM AKST
Civil Twilight 8:38 AM AKST 6:47 PM AKST
Nautical Twilight 7:40 AM AKST 7:44 PM AKST
Astronomical Twilight 6:44 AM AKST 8:41 PM AKST
Moon 9:22 AM AKST (2/13) No Moon Set
Length of Visible Light 10h 08m
Length of Day
8h 22m
Waxing Crescent, 15% of the Moon is Illuminated
Feb 13
Waxing Crescent
Feb 17
First Quarter
Feb 25
Full
Mar 4
Last Quarter
Mar 11
New

Hourly Weather History & Observations

Time (AKST) Temp. Windchill Dew Point Humidity Pressure Visibility Wind Dir Wind Speed Gust Speed Precip Events Conditions
12:58 AM 6.1 °F -5.6 °F 1.9 °F 83% 29.76 in 10.0 mi NNE 6.9 mph - N/A   Overcast
1:58 AM 7.0 °F -1.7 °F 3.0 °F 84% 29.76 in 10.0 mi North 4.6 mph - N/A   Overcast
2:58 AM 7.0 °F -1.7 °F 3.0 °F 84% 29.75 in 10.0 mi NNE 4.6 mph - N/A   Overcast
3:58 AM 8.1 °F 1.4 °F 3.9 °F 83% 29.75 in 10.0 mi NNE 3.5 mph - N/A   Overcast
4:58 AM 10.0 °F 3.6 °F 6.1 °F 84% 29.75 in 10.0 mi NE 3.5 mph - N/A   Overcast
5:58 AM 12.9 °F 6.9 °F 9.0 °F 84% 29.74 in 10.0 mi East 3.5 mph - N/A   Overcast
6:46 AM 10.4 °F - 6.8 °F 85% 29.72 in 10.0 mi Calm Calm - N/A   Overcast
6:58 AM 10.0 °F - 6.1 °F 84% 29.74 in 10.0 mi Calm Calm - N/A   Overcast
7:58 AM 9.0 °F -4.2 °F 6.1 °F 88% 29.73 in 10.0 mi NNE 9.2 mph - N/A   Overcast
8:07 AM 10.4 °F 4.0 °F 6.8 °F 85% 29.71 in 10.0 mi NE 3.5 mph - N/A   Overcast
8:58 AM 12.9 °F 6.9 °F 10.9 °F 92% 29.73 in 9.0 mi East 3.5 mph - 0.00 in Snow Light Snow
9:58 AM 10.9 °F - 8.1 °F 88% 29.74 in 10.0 mi Calm Calm - 0.00 in   Overcast
10:58 AM 17.1 °F 6.6 °F 12.9 °F 84% 29.74 in 10.0 mi East 8.1 mph - 0.00 in   Overcast
11:58 AM 19.0 °F 6.8 °F 14.0 °F 81% 29.73 in 10.0 mi East 11.5 mph - N/A   Overcast
12:58 PM 19.9 °F 13.4 °F 15.1 °F 81% 29.73 in 10.0 mi ESE 4.6 mph - N/A   Overcast
1:58 PM 19.9 °F 12.1 °F 15.1 °F 81% 29.73 in 10.0 mi ESE 5.8 mph - N/A   Overcast
2:58 PM 19.9 °F 9.3 °F 15.1 °F 81% 29.72 in 9.0 mi ESE 9.2 mph - 0.00 in Snow Light Snow
3:58 PM 19.9 °F 8.6 °F 16.0 °F 85% 29.72 in 9.0 mi ESE 10.4 mph - 0.00 in Snow Light Snow
4:24 PM 19.4 °F 5.0 °F 15.8 °F 86% 29.68 in 2.5 mi East 16.1 mph - 0.00 in Snow Light Snow
4:26 PM 19.4 °F 5.0 °F 15.8 °F 86% 29.68 in 2.5 mi East 16.1 mph - 0.00 in Snow Light Snow
4:35 PM 19.4 °F 4.5 °F 15.8 °F 86% 29.68 in 1.2 mi East 17.3 mph - 0.00 in Snow Light Snow
4:46 PM 19.4 °F 2.8 °F 15.8 °F 86% 29.68 in 2.5 mi East 21.9 mph - 0.00 in Snow Light Snow
4:51 PM 19.4 °F 3.2 °F 15.8 °F 86% 29.68 in 6.0 mi East 20.7 mph - 0.00 in Snow Light Snow
4:58 PM 19.9 °F 3.9 °F 15.1 °F 81% 29.70 in 9.0 mi East 20.7 mph - 0.00 in Snow Light Snow
5:58 PM 19.0 °F 6.8 °F 14.0 °F 81% 29.70 in 10.0 mi East 11.5 mph - 0.00 in   Overcast
6:58 PM 19.0 °F 12.3 °F 12.9 °F 77% 29.70 in 10.0 mi SE 4.6 mph - N/A   Overcast
7:58 PM 18.0 °F 8.7 °F 12.0 °F 78% 29.70 in 10.0 mi ESE 6.9 mph - N/A   Overcast
8:58 PM 19.0 °F 7.5 °F 12.0 °F 74% 29.69 in 10.0 mi East 10.4 mph - N/A   Mostly Cloudy
9:58 PM 17.1 °F 11.7 °F 10.9 °F 77% 29.70 in 10.0 mi East 3.5 mph - N/A   Overcast
10:58 PM 18.0 °F 11.1 °F 10.9 °F 74% 29.68 in 10.0 mi ESE 4.6 mph - N/A   Overcast
11:58 PM 19.9 °F 6.7 °F 14.0 °F 78% 29.67 in 9.0 mi ESE 13.8 mph - 0.00 in Snow Light Snow